sat.trackr.live / text

‹ back to catalog

STARLINK-31053

NORAD 58549 · 2023-192U

PAYLOAD ACTIVE UNKNOWN

§ Identity

Operator
Country
US
Launch date
2023-12-08
Launch site
AFWTR
Launch vehicle
Mass (kg)
RCS (m²)

Purposes: comms

External: N2YO · Heavens-Above · Gunter

§ Orbital elements

Epoch: 2026-09-20T15:42:20.269728Z

Period
93.85 min
Inclination
53.1593°
Eccentricity
0.0001324
Mean motion
15.34390353 rev/d
Perigee alt
461.8 km
Apogee alt
463.6 km
Semi-major
6,840.9 km
B*
-4.1269e-6
RAAN
233.0133°
Arg perigee
84.6046°
Mean anomaly
275.5108°
Rev number
15,589

§ Raw data

STARLINK-310531 58549U 23192U   26263.65440127 -.00000516  00000+0 -41269-5 0  99962 58549  53.1593 233.0133 0001324  84.6046 275.5108 15.34390353155894

JSON: /api/v1/satellites/58549 · /tle

For live sub-satellite position, see the globe view (requires WebGL).

§ Visibility from observer

Set your observer location to see the next 7 days of passes ≥ 10°. The values pass through the URL so the page stays shareable.

No JS? Fill the form by hand. The geolocation button needs JavaScript.